FLOCK 4BE-24 (60505 NORAD) Tracking and Keplerian Element Data

This shows tracking and keplerian element data for the satellite.

Feedback or suggestion? Click here.




ElementValue
Catalog60505
NameFLOCK 4BE-24
Epoch Orbit864
Epoch Day286.74695348
Epoch Year2024
RAAN1.4257
Inclination97.4336
Eccentricity0.0005031
Argument of Perigee299.2839
Mean Anonmoly60.7893
Mean Motion15.20213482
Decay Rate0.00020101
L11 60505U 24149AP 24286.74695348 .00020101 00000+0 92857-3 0 9991
L22 60505 97.4336 1.4257 0005031 299.2839 60.7893 15.20213482 8649



Live tracking and technical data element details for FLOCK 4BE-24 (NORAD 60505). FLOCK 4BE-24 can be tracked NOW for your location showing map with azimuth and elevation plus other details from your city location.







IsCatalogInMostPopularTable: catalog: 60505, numindb: 6
Update: records affected: 1



GetName: 60505 FLOCK 4BE-24

Hit Count: updated at: Wed, 04 Dec 2024 18:12:33 GMT